Temp_Advection
nan nan nan nan nan nan nan nan nan nan nan nan nan nan nan nan nan nan nan nan nan nan
nan 1 1 1 1 1 1 1 1 0 0 0 0 0 0 0 0 -0 -0 -0 -0 nan
nan 1 1 1 1 1 1 1 1 0 1 0 0 0 0 0 0 -0 -0 -0 -0 nan
nan 1 1 1 1 2 1 1 1 1 1 1 0 0 0 0 0 0 -0 -0 -0 nan
nan 1 2 1 2 2 1 1 1 1 1 1 0 0 0 0 0 0 0 -0 -0 nan
nan 2 2 1 1 1 2 2 1 1 1 1 0 0 0 0 0 0 -0 -0 -0 nan
nan 3 2 1 1 2 2 2 1 1 1 1 0 0 0 0 0 0 -0 -0 -0 nan
nan 1 1 2 2 2 2 1 1 1 1 0 0 0 0 0 0 -0 -0 -0 -0 nan
nan 1 3 2 3 2 1 1 1 1 0 0 0 0 0 0 -0 -0 -0 -0 -0 nan
nan 4 3 2 2 1 -0 0 1 0 0 0 0 0 0 0 0 -0 -0 -0 -0 nan
nan 3 1 1 0 -0 0 1 0 0 1 0 0 0 0 0 0 -0 -0 -0 -0 nan
nan 2 2 0 -1 -0 1 0 0 0 1 1 1 0 0 0 0 0 -0 -0 -0 nan
nan 1 -0 -1 0 1 1 0 0 1 1 1 0 0 0 0 0 0 0 -0 -0 nan
nan nan nan nan nan nan nan nan nan nan nan nan nan nan nan nan nan nan nan nan nan nan
Wind_Speed
42 39 35 33 31 28 24 20 18 14 11 8 7 4 3 2 3 4 5 6 6 6
44 41 38 35 32 29 26 23 19 16 12 9 8 5 3 2 2 3 4 4 5 5
45 42 39 37 36 32 29 25 21 17 14 11 8 6 4 2 2 2 4 4 4 3
46 43 41 37 35 35 30 26 22 19 16 12 10 7 5 4 2 2 4 4 3 4
45 45 42 42 39 34 30 27 23 19 15 13 10 7 6 4 2 2 2 3 4 5
46 43 43 39 36 33 31 27 24 19 15 12 9 8 7 4 3 2 3 5 5 6
45 41 41 39 36 33 30 27 22 18 14 12 9 8 6 4 3 3 3 4 5 7
45 40 41 36 33 31 28 24 20 17 14 12 10 7 6 4 4 5 5 5 5 8
43 40 40 33 32 29 26 22 19 14 13 12 9 8 6 5 5 6 7 7 7 9
45 43 39 35 33 29 25 20 15 14 13 13 12 10 8 7 7 8 7 8 8 9
46 44 39 38 33 26 21 18 15 15 15 15 14 12 9 7 8 9 8 8 9 10
48 46 41 37 28 28 25 20 17 15 18 17 15 12 10 9 9 10 8 9 10 12
47 42 36 29 31 28 21 19 17 19 20 18 16 13 12 11 11 9 7 9 11 11
40 34 28 31 29 24 22 18 19 20 20 19 15 14 14 13 10 9 8 10 10 11
Wind_Direction
215 215 216 216 214 210 208 206 206 207 211 221 233 245 257 288 316 330 350 360 2 359
214 214 216 215 214 211 209 209 207 209 210 214 219 224 220 277 307 338 353 356 1 7
214 215 216 216 213 211 212 209 210 209 211 208 210 207 215 243 275 337 332 341 2 0
216 215 215 216 216 216 211 212 208 209 206 205 200 203 215 219 229 300 324 339 350 352
214 214 214 215 213 212 212 207 208 204 203 200 197 202 210 210 221 257 294 317 338 337
213 214 215 213 214 210 208 206 200 202 200 201 198 207 206 218 226 270 310 337 338 319
212 213 215 217 210 208 207 204 199 198 200 199 206 205 216 236 251 268 301 323 324 316
213 215 211 210 208 206 204 201 198 196 198 207 209 221 233 240 272 299 311 317 313 329
214 209 210 205 207 202 198 194 194 199 210 219 221 229 238 255 281 301 316 313 326 337
209 202 203 206 197 197 193 196 198 198 218 222 227 229 239 262 291 308 312 313 329 332
206 206 202 194 193 191 206 196 193 209 220 226 231 233 247 268 298 304 303 312 323 324
208 203 197 187 186 208 198 185 196 211 219 223 230 238 251 275 288 291 297 309 318 319
204 196 183 189 202 197 185 188 201 209 213 221 227 242 262 275 281 278 294 308 312 316
195 184 191 199 192 184 185 192 200 211 215 219 230 250 262 270 270 280 295 297 302 313
Height
1472 1477 1482 1486 1489 1492 1495 1497 1499 1500 1502 1503 1505 1505 1505 1505 1505 1506 1504 1502 1500 1499
1466 1470 1475 1481 1485 1487 1490 1492 1494 1496 1497 1498 1500 1500 1501 1502 1502 1503 1503 1501 1498 1498
1459 1465 1470 1475 1478 1481 1483 1486 1488 1491 1493 1494 1493 1496 1496 1498 1499 1500 1501 1499 1495 1495
1454 1459 1464 1469 1473 1476 1478 1482 1485 1487 1489 1489 1489 1491 1492 1493 1493 1496 1499 1499 1496 1493
1448 1454 1460 1463 1467 1471 1475 1478 1481 1485 1485 1486 1486 1488 1491 1491 1490 1491 1495 1495 1494 1492
1443 1449 1455 1459 1466 1470 1472 1474 1477 1481 1483 1485 1485 1486 1487 1487 1487 1490 1494 1492 1491 1493
1438 1443 1450 1457 1462 1465 1470 1472 1474 1478 1479 1482 1483 1484 1484 1487 1486 1486 1487 1486 1486 1491
1432 1439 1448 1455 1460 1464 1468 1471 1472 1474 1477 1481 1481 1482 1483 1484 1485 1485 1484 1482 1484 1483
1425 1432 1441 1449 1454 1464 1466 1470 1472 1471 1477 1480 1480 1481 1482 1484 1483 1483 1483 1484 1480 1477
1420 1426 1433 1440 1450 1459 1464 1465 1467 1469 1475 1477 1477 1477 1478 1481 1482 1481 1480 1481 1477 1474
1413 1419 1425 1433 1443 1453 1458 1458 1462 1466 1471 1474 1475 1474 1475 1476 1476 1477 1475 1475 1472 1472
1405 1410 1418 1427 1439 1445 1447 1451 1457 1462 1468 1471 1473 1472 1474 1475 1473 1475 1471 1469 1469 1469
1399 1408 1419 1429 1434 1440 1444 1448 1453 1460 1465 1468 1469 1470 1470 1472 1472 1469 1468 1466 1466 1465
1400 1408 1417 1423 1430 1436 1441 1446 1452 1457 1462 1464 1466 1466 1467 1465 1467 1466 1462 1464 1465 1461